Location: Berg
(47.2344°N, 9.5296°E)
Time: 05:27:29
(UTC+00:00)

BEESAT 2 - Pass Details

Date: 03 December 2021
Orbit: 498 x 513 km, 64.9° (Epoch: 19 January)

Event Time Altitude Azimuth Distance (km) Brightness Sun altitude
Exits shadow 06:05:29 - 320° (NW) 1,968 ? -7.5°
Reaches altitude 10° 06:06:01 10° 320° (NW) 1,754 ? -7.4°
Maximum altitude 06:09:55 73° 236° (SW) 543 ? -6.8°
Drops below altitude 10° 06:13:48 10° 151° (SSE) 1,735 ? -6.2°
Sets 06:15:57 0° 149° (SSE) 2,615 ? -5.9°
